Regional Weather Roundup
Issued by NWS

Home | Current Version | Previous Version | Graphics & Text | Print | Product List | Glossary Off
Versions: 1 2 3 4 5 6 7 8 9 10 11 12 13 14 15 16 17 18 19 20 21 22 23 24 25 26 27 28 29 30 31 32 33 34 35 36 37 38 39 40 41 42 43 44 45 46 47 48 49 50

000
ASUS43 KMPX 231010
RWRMN
WEATHER ROUNDUP FOR MINNESOTA
NATIONAL WEATHER SERVICE TWIN CITIES/CHANHASSEN MN
400 AM CST THU NOV 23 2017


NOTE: "FAIR" INDICATES FEW OR NO CLOUDS BELOW 12,000 FEET WITH NO
SIGNIFICANT WEATHER AND/OR OBSTRUCTIONS TO VISIBILITY. N/A MEANS
CURRENT SKY AND/OR WEATHER CONDITIONS ARE NOT AVAILABLE.

MNZ060>063-068>070-231100-
   Twin Cities Metro

CITY           SKY/WX    TMP DP  RH WIND       PRES   REMARKS
TWIN CITIES    MOCLDY    26  19  74 CALM      29.93F
ST PAUL        PTCLDY    25  19  78 CALM      29.94F
CRYSTAL        PTCLDY    22  15  75 CALM      29.92S
BLAINE         CLOUDY    25  19  80 CALM      29.91F
LAKEVILLE      CLOUDY    19  18  93 CALM      29.92F
EDEN PRAIRIE   CLOUDY    26  17  68 CALM      29.91F
SOUTH ST PAUL  CLOUDY    24  19  80 CALM      29.92F
LAKE ELMO      FAIR      21  19  93 CALM      29.93F
$$
MNZ001>005-007-008-013>017-022>024-027-028-231100-
   Northwest Minnesota

CITY           SKY/WX    TMP DP  RH WIND       PRES   REMARKS
BEMIDJI        CLOUDY    14  12  92 SW3       29.90S
HALLOCK        CLOUDY    12  10  92 S6        29.90F WCI   3
ROSEAU         CLOUDY    16  12  86 SW5       29.89F WCI   9
WARROAD        CLOUDY    16  12  86 CALM      29.89S
THIEF RVR FALL CLOUDY    15  13  91 SW5       29.91F WCI   8
CROOKSTON      CLOUDY    23  21  93 SW3       29.94F
FOSSTON        CLOUDY    10   9  92 SW5       29.93S WCI   2
DETROIT LAKES  CLOUDY    23  19  86 CALM      29.93F
MOORHEAD       CLOUDY    21  18  86 CALM      29.96F
PARK RAPIDS    CLOUDY    10   6  84 W3        29.91R
MAHNOMEN       FAIR      17  13  85 S5        29.93F WCI  10
$$
MNZ006-009>011-018-025>026-231100-
   North Central Minnesota

CITY           SKY/WX    TMP DP  RH WIND       PRES   REMARKS
BAUDETTE       CLOUDY    16  14  92 SW6       29.88S WCI   7
FLAG ISLAND    CLOUDY    18  16  93 SW5       29.87S WCI  11
INTL FALLS     PTCLDY    16  14  92 S3        29.88F
WASKISH        CLOUDY    16  12  86 CALM      29.89F
BIG FORK       CLOUDY    16  14  93 CALM      29.89F
LONGVILLE      CLOUDY     9   7  92 CALM      29.92R
GRAND RAPIDS   CLOUDY    19  17  92 CALM      29.92S
CRANE LAKE     CLOUDY    19  16  86 CALM      29.90S
ORR            CLOUDY    18  16  93 CALM      29.86S
COOK           CLOUDY    19  18  93 SW3       29.89R
WALKER         FAIR      10   8  89 W3        29.91S
$$
MNZ012-019>021-037-231100-
   Northeast Minnesota

CITY           SKY/WX    TMP DP  RH WIND       PRES   REMARKS
DULUTH         CLOUDY    20  18  92 W3        29.87F
ELY            CLOUDY    19  16  86 W5        29.86F WCI  13
HIBBING        CLOUDY    20  18  92 CALM      29.88F
EVELETH        CLOUDY    20  16  84 W5        29.90S WCI  13
DULUTH HARBOR  PTCLDY    25  21  86 SW5       29.94F WCI  19
TWO HARBORS    PTCLDY    21  18  86 CALM      29.88F
SILVER BAY     CLOUDY    23  19  86 CALM      29.86F
GRAND MARAIS     N/A     26  19  74 VRB5      29.88F WCI  20
G MARAIS ARPRT CLOUDY    18  12  79 W3        29.80F
$$
MNZ029>031-032-039>041-046>048-054>057-064-231100-
   West Central Minnesota

CITY           SKY/WX    TMP DP  RH WIND       PRES   REMARKS
FERGUS FALLS   CLOUDY    16  12  86 NW3       29.98S
WHEATON        CLOUDY    23  18  80 W5        29.98S WCI  17
MORRIS         CLOUDY    21  18  86 NW7       29.94S WCI  13
ALEXANDRIA     CLOUDY    20  17  88 SW5       29.93R WCI  13
ELBOW LAKE     FAIR      19  16  90 W6        29.95S FOG     WCI  10
WADENA         CLOUDY    16  12  86 CALM      29.93R
GLENWOOD       PTCLDY    19  18  93 CALM      29.92F
APPLETON       CLOUDY    27  19  74 NW5       29.96S WCI  21
BENSON         CLOUDY    19  16  86 NW3       29.96S
ORTONVILLE     CLOUDY    27  19  74 NW6       29.96S WCI  20
MADISON        CLOUDY    28  23  80 NW7       29.96F WCI  21
WILLMAR        FAIR      21  18  86 NW3       29.95R
$$
MNZ033>034-036-042>043-049>051-058-059-231100-
   Central Minnesota

CITY           SKY/WX    TMP DP  RH WIND       PRES   REMARKS
ST CLOUD       CLOUDY    20  17  88 W5        29.92S WCI  13
SAUK CENTRE    FAIR      19  16  89 W3        29.93R
PAYNESVILLE    CLOUDY    19  17  95 W3        29.94R
AITKIN         CLOUDY     9   7  92 CALM      29.90R
PINE RIVER     CLOUDY     9   7  92 CALM      29.95S
BRAINERD       CLOUDY    12   9  87 CALM      29.92R
STAPLES        CLOUDY    16  12  86 CALM      29.92S
LITTLE FALLS   CLOUDY    21  14  73 CALM      29.93S
LITCHFIELD     CLOUDY    23  19  86 CALM      29.93S
BUFFALO        CLOUDY    22  17  83 CALM      29.94S
MAPLE LAKE     CLOUDY    21  19  93 CALM      29.93S
HUTCHINSON     CLOUDY    23  18  82 NW5       29.94S WCI  17
$$
MNZ037-044-045-052-053-231100-
   East Central Minnesota

CITY           SKY/WX    TMP DP  RH WIND       PRES   REMARKS
PRINCETON      CLOUDY    21  18  86 CALM      29.91F
MORA           CLOUDY    18  14  86 CALM      29.93F
CAMBRIDGE      CLOUDY    25  16  68 CALM      29.91F
RUSH CITY      CLOUDY    19  18  93 CALM      29.91F
MOOSE LAKE     CLOUDY    19  18  93 CALM      29.90F
HINCKLEY       FAIR      19  19 100 CALM      29.92F
CLOQUET        CLOUDY    19  18  93 CALM      29.89F
MCGREGOR       CLOUDY    16  14  93 CALM      29.91S
$$
MNZ071>073-080-081-089-090-097-098-231100-
   Southwest Minnesota

CITY           SKY/WX    TMP DP  RH WIND       PRES   REMARKS
MONTEVIDEO     CLOUDY    25  19  80 N7        29.95F WCI  17
GRANITE FALLS  CLOUDY    28  23  82 W8        29.97S WCI  19
CANBY          CLOUDY    30  24  77 NW6       29.98S WCI  24
MARSHALL       CLOUDY    28  23  81 NW8       29.96F WCI  20
REDWOOD FALLS  CLOUDY    27  19  72 NW8       29.94S WCI  19
OLIVIA         CLOUDY    27  19  74 NW7       29.93S WCI  19
PIPESTONE      CLOUDY    27  21  80 N5        29.95R WCI  21
WINDOM           N/A     27  14  59 W9        29.94R WCI  17
WORTHINGTON    CLOUDY    27  21  78 NW7       29.95S WCI  19
JACKSON        CLOUDY    32  23  69 NW13      29.95R WCI  22
SLAYTON        CLOUDY    25  15  64 NW7       29.95S WCI  18
$$
MNZ065>067-074>077-082>085-091>093-231100-
   South Central Minnesota

CITY           SKY/WX    TMP DP  RH WIND       PRES   REMARKS
MANKATO        CLOUDY    27  19  72 W3        29.93S
NEW ULM        CLOUDY    23  16  74 CALM      29.93S
ST JAMES       CLOUDY    25  19  80 W8        29.94S WCI  16
FAIRMONT       CLOUDY    28  21  75 W9        29.93S WCI  19
GLENCOE        CLOUDY    24  19  81 W5        29.92S WCI  19
FARIBAULT      CLOUDY    23  18  80 CALM      29.92F
OWATONNA       CLOUDY    25  18  74 CALM      29.90F
WASECA         CLOUDY    23  18  80 SW3       29.92F
ALBERT LEA     CLOUDY    25  18  74 CALM      29.91S
$$
MNZ078>079-086>088-094>096-231100-
   Southeast Minnesota

CITY           SKY/WX    TMP DP  RH WIND       PRES   REMARKS
ROCHESTER      CLOUDY    23  17  78 S6        29.91S WCI  16
RED WING       CLOUDY    25  16  68 CALM      29.93F
STANTON        CLOUDY    22  18  83 CALM      29.91F
DODGE CENTER   CLOUDY    25  18  74 SW7       29.91S WCI  17
WINONA           N/A     30  21  69 CALM      29.96S
AUSTIN         CLOUDY    25  18  74 S3        29.92S
PRESTON        CLOUDY    27  17  66 SW7       29.93R WCI  19
$$
ABBREVIATIONS USED IN REMARKS
   TC - TEMPERATURES IN CELSIUS
  WCI - WIND CHILL INDEX
   HX - HEAT INDEX
  VSB - VISIBILITY
$$




USA.gov is the U.S. government's official web portal to all federal, state and local government web resources and services.